[Iaude] MPEC J214: 2024 JG6 [a=1.45,e=0.30,i=10.3,H=26.1]

mpec at cfa.harvard.edu mpec at cfa.harvard.edu
Thu May 9 01:28:11 EDT 2024


M.P.E.C. 2024-J214                                  Issued 2024 May 9, 05:26 UT

     The Minor Planet Electronic Circulars contain information on unusual
         minor planets, routine data on comets and natural satellites,
         and occasional editorial announcements.  They are published
    on behalf of Division F of the International Astronomical Union by the
          Minor Planet Center, Smithsonian Astrophysical Observatory,
                          Cambridge, MA 02138, U.S.A.
			  
             Prepared using the Tamkin Foundation Computer Network

                              MPC at CFA.HARVARD.EDU
            URL https://www.minorplanetcenter.net/    ISSN 1523-6714

                                    2024 JG6                                    


Observations:
     K24J06G* C2024 05 07.35914813 19 36.619-30 45 15.74         20.62wXEJ214F51
     K24J06G  C2024 05 07.36889413 19 40.418-30 44 06.74         20.99wXEJ214F51
     K24J06G  C2024 05 07.37862713 19 44.215-30 42 57.22         21.04wXEJ214F51
     K24J06G  C2024 05 07.38837213 19 48.018-30 41 47.76         20.79wXEJ214F51
     K24J06G KC2024 05 07.52103013 20 48.732-30 22 58.58         20.7 GVEJ214474
     K24J06G KC2024 05 07.52351213 20 49.740-30 22 40.33         20.7 GVEJ214474
     K24J06G KC2024 05 07.52599413 20 50.786-30 22 21.50         20.7 GVEJ214474
     K24J06G KC2024 05 07.52847713 20 51.823-30 22 03.32         20.6 GVEJ214474
     K24J06G KC2024 05 08.20019613 26 30.250-28 59 25.01         20.59GVEJ214I52
     K24J06G KC2024 05 08.20174513 26 30.908-28 59 13.56         20.59GVEJ214I52
     K24J06G KC2024 05 08.20329513 26 31.607-28 59 01.18         20.99GVEJ214I52
     K24J06G KC2024 05 08.20484713 26 32.244-28 58 48.61         20.83GVEJ214I52
     K24J06G mC2024 05 09.20439613 35 34.382-26 31 55.88         20.60GVEJ214I52
     K24J06G mC2024 05 09.21445313 35 39.386-26 30 20.63         20.38GVEJ214I52
     K24J06G mC2024 05 09.21506313 35 39.736-26 30 15.37         19.90GVEJ214I52
     K24J06G mC2024 05 09.21567213 35 40.016-26 30 09.04               VEJ214I52

Observer details:
474 Mount John Observatory, Lake Tekapo.  Observers A. C. Gilmore, P. M.
    Kilmartin.  Measurer P. M. Kilmartin.  1.0-m f/7.7 Reflector + CCD.
F51 Pan-STARRS 1, Haleakala.  Observers J. Herman, T. Lowe, P. Minguez, A.
    Schultz, I. Smith.  Measurers K. Chambers, T. de Boer, J. Fairlamb, H.
    Gao, M. Huber, C.-C. Lin, E. Magnier, Y. Ramanjooloo, R. Wainscoat, R.
    Weryk.  1.8-m Ritchey-Chretien + CCD.
I52 Steward Observatory, Mt. Lemmon Station.  Observer H. Groeller.  Measurers
    T. Beuden, V. F. Carvajal, D. Fay, J. B. Fazekas, D. C. Fuls, A. R. Gibbs,
    A. D. Grauer, H. Groeller, J. K. Hogan, R. A. Kowalski, S. M. Larson, G.
    J. Leonard, D. Rankin, R. L. Seaman, F. C. Shelly, K. W. Wierzchos.  1.0-m
    prime focus + CCD.

Orbital elements:
2024 JG6                                                 Earth MOID = 0.0284 AU
Epoch 2024 Mar. 31.0 TT = JDT 2460400.5                 MPC                     
M 321.78167              (2000.0)            P               Q                  
n   0.56291580     Peri.   27.06556     -0.20187166     +0.96924646             
a   1.4526927      Node   231.62685     -0.92795485     -0.23524691             
e   0.2994820      Incl.   10.34210     -0.31328523     +0.07225084             
P   1.75           H   26.16          G   0.15           U   7                  
Residuals in seconds of arc
240507 F51  0.1-  0.1-    240507 474  0.0   0.2+    240509 I52  0.2-  0.3+
240507 F51  0.1-  0.0     240507 474  0.1-  0.1-    240509 I52  0.3-  0.2+
240507 F51  0.1-  0.2+    240508 I52  0.4+  0.7+    240509 I52  0.3+  0.3-
240507 F51  0.1-  0.1-    240508 I52  0.0   0.2-    240509 I52  0.0   0.2+
240507 474  0.4+  0.1+    240508 I52  0.2+  0.2-
240507 474  0.0   0.1-    240508 I52  0.4-  0.1-

Ephemeris:
2024 JG6                 a,e,i = 1.45, 0.30, 10                  q = 1.0176
Date    TT    R. A. (2000) Decl.     Delta      r    Elong.  Phase     V
2024 04 09    12 13 42.4 -43 38 14   0.1783  1.1470   141.8    32.7    24.1
...
2024 04 24    12 24 57.0 -42 13 10   0.1075  1.0937   143.2    33.4    22.9
...
2024 05 02    12 48 07.7 -37 53 30   0.07303 1.0698   147.0    30.8    21.9
...
2024 05 08    13 24 45.6 -29 23 33   0.04959 1.0544   154.9    24.0    20.9
2024 05 09    13 33 35.3 -27 01 24   0.04607 1.0521   156.9    22.1    20.7
2024 05 10    13 43 27.4 -24 13 31   0.04272 1.0498   159.2    20.0    20.4
...
2024 05 16    15 10 44.3 +05 22 36   0.02927 1.0377   155.0    24.3    19.7
...
2024 05 24    18 05 23.3 +46 07 39   0.04063 1.0257   107.7    70.2    21.7
...
2024 06 08    20 52 23.6 +54 20 28   0.09448 1.0174    88.8    85.9    24.1

A. U. Tomatic                (C) Copyright 2024 MPC           M.P.E.C. 2024-J214





More information about the Iaude mailing list